Погода в Камышеватской

Россия / Краснодарский край     46°24′42″N   37°57′19″E
темп.,
°C
ветер,
м/с
пор.,
м/с
влажн.,
%
обл.,
%
осадки,
мм/ч
давл.,
гПа
погр.,
м
14 июня, пн
пн1400:00+19ююз46825 0.0 1011170
03:00+18ююз34855 0.3 1011154
06:00+19ю2384100 0.0 1011168
09:00+22юв336885 0.0 1012825
12:00+25ююв235219 0.0 10121401
15:00+25зсз325944 0.3 1012781
18:00+23ссв5667100 0.5 1011329
21:00+21св48755 0.5 1010139
15 июня, вт
вт1500:00+21св59740 0.0 1010161
03:00+21св51078100 0.0 1009214
06:00+21всв4970100 0.0 1009286
09:00+21юв4776100 0.1 1010411
12:00+22в4573100 2.6 1009302
15:00+25юв1358100 4.6 1009934
18:00+25в22642 0.6 1009688
21:00+20ю22840 3.3 100918
16 июня, ср
ср1600:00+20з22840 0.4 100937
03:00+19св2287100 0.4 100833
06:00+20всв2286100 0.0 100868
09:00+23всв2376100 0.0 1009402
12:00+27всв566467 0.9 10081097
15:00+24ююз66789 11.1 1008677
18:00+23юз56790 1.8 1009545
21:00+20юз34890 1.8 1010118
17 июня, чт
чт1700:00+19св22928 0.0 101054
03:00+18в23966 0.0 101077
06:00+20с3491100 0.5 1010147
09:00+21ссв3387100 3.9 1011385
12:00+21ссв5686100 4.7 1012331
15:00+21юв3485100 6.9 1013387
18:00+21юз2183100 0.4 1014303
21:00+19в2393100 1.9 1015114
18 июня, пт
пт1800:00+19всв2395100 0.8 1015123
03:00+19в3497100 2.0 1016153
06:00+18в5893100 0.5 1017284
09:00+19в4789100 0.5 1018390
12:00+21всв6781100 0.1 1018824
15:00+21всв7877100 0.9 10181056
18:00+22всв6107319 0.3 1018903
21:00+19всв5127494 0.3 1019350